Weather History for PANC - January, 2013

Change the Weather History Date:

Thursday, January 17, 2013

  Actual Average Record
Temperature  
Mean Temperature 17 °F 17 °F  
Max Temperature 20 °F 23 °F 46 °F (1992)
Min Temperature 13 °F 11 °F -20 °F (1956)
Degree Days  
Heating Degree Days 48    
Month to date heating degree days 639  
Since 1 July heating degree days 5650  
Cooling Degree Days 0    
Month to date cooling degree days 0  
Year to date cooling degree days 0  
Moisture  
Dew Point 11 °F    
Average Humidity 67    
Maximum Humidity 84    
Minimum Humidity 49    
Precipitation  
Precipitation 0.16 in 0.02 in 0.25 in (2003)
Month to date precipitation 0.79 0.40  
Year to date precipitation 0.79 0.40  
Snow  
Snow 5.20 in 0.40 in 5.20 in (2013)
Month to date snowfall 8.9 6.3  
Since 1 July snowfall 33.8 44.4  
Snow Depth 13.00 in    
Sea Level Pressure  
Sea Level Pressure 29.70 in    
Wind  
Wind Speed 5 mph (NE)    
Max Wind Speed 10 mph    
Max Gust Speed -    
Visibility 4 miles    
Events Snow    
T = Trace of Precipitation, MM = Missing Value Source: NWS Daily Summary

Daily Weather History Graph

Daily Weather History Graph

Search for Another Location

Airport or City:

Trip Planner

Search our weather history database for the weather conditions in past years. The results will help you decide how hot, cold, wet, or windy it might be!

Date:

Astronomy

Jan. 17, 2013 Rise Set
Actual Time 9:52 AM AKST 4:28 PM AKST
Civil Twilight 8:57 AM AKST 5:23 PM AKST
Nautical Twilight 8:01 AM AKST 6:19 PM AKST
Astronomical Twilight 7:10 AM AKST 7:11 PM AKST
Moon 10:55 AM AKST (1/17) 12:31 AM AKST (1/17)
Length of Visible Light 8h 26m
Length of Day
6h 36m
Waxing Crescent, 39% of the Moon is Illuminated
Jan 17
Waxing Crescent
Jan 18
First Quarter
Jan 26
Full
Feb 3
Last Quarter
Feb 9
New

Hourly Weather History & Observations

Time (AKST) Temp. Windchill Dew Point Humidity Pressure Visibility Wind Dir Wind Speed Gust Speed Precip Events Conditions
12:53 AM 21.0 °F 16.2 °F 16.0 °F 81% 29.68 in 2.0 mi Variable 3.5 mph - 0.01 in Snow Light Snow
1:43 AM 21.2 °F 13.6 °F 15.8 °F 80% 29.65 in 3.0 mi NE 5.8 mph - 0.00 in Snow Light Snow
1:53 AM 21.0 °F 16.2 °F 16.0 °F 81% 29.66 in 5.0 mi ENE 3.5 mph - 0.00 in Snow Light Snow
3:53 AM 19.9 °F 13.4 °F 16.0 °F 85% 29.63 in 3.0 mi ENE 4.6 mph - 0.01 in Snow Light Snow
4:12 AM 19.4 °F 12.8 °F 15.8 °F 86% 29.62 in 2.5 mi ENE 4.6 mph - 0.00 in Snow Light Snow
4:53 AM 19.9 °F 14.9 °F 16.0 °F 85% 29.61 in 2.5 mi East 3.5 mph - 0.00 in Snow Light Snow
5:53 AM 19.9 °F 13.4 °F 16.0 °F 85% 29.60 in 2.0 mi East 4.6 mph - 0.01 in Snow Light Snow
6:47 AM 19.4 °F 9.5 °F 15.8 °F 86% 29.59 in 1.8 mi ENE 8.1 mph - 0.01 in Snow Light Snow
6:53 AM 19.9 °F 12.1 °F 15.1 °F 81% 29.61 in 1.8 mi East 5.8 mph - 0.01 in Snow Light Snow
7:26 AM 19.4 °F 11.5 °F 15.8 °F 86% 29.60 in 2.0 mi ENE 5.8 mph - 0.01 in Snow Light Snow
7:53 AM 19.0 °F 12.3 °F 15.1 °F 85% 29.61 in 2.0 mi NE 4.6 mph - 0.01 in Snow Light Snow
7:56 AM 19.4 °F 12.8 °F 15.8 °F 86% 29.60 in 1.8 mi ENE 4.6 mph - 0.00 in Snow Light Snow
8:53 AM 19.0 °F 11.1 °F 15.1 °F 85% 29.62 in 1.8 mi NNE 5.8 mph - 0.01 in Snow Light Snow
9:53 AM 19.0 °F 13.9 °F 14.0 °F 81% 29.64 in 1.0 mi NE 3.5 mph - 0.02 in Snow Light Snow
10:12 AM 19.4 °F 12.8 °F 14.0 °F 80% 29.63 in 0.8 mi ENE 4.6 mph - 0.00 in Snow Light Snow
10:25 AM 19.4 °F 11.5 °F 14.0 °F 80% 29.63 in 1.0 mi NE 5.8 mph - 0.01 in Snow Light Snow
10:34 AM 19.4 °F 8.6 °F 14.0 °F 80% 29.63 in 1.0 mi North 9.2 mph - 0.01 in Snow Light Snow
10:53 AM 18.0 °F 8.7 °F 12.9 °F 81% 29.65 in 1.0 mi North 6.9 mph - 0.01 in Snow Light Snow
11:39 AM 19.4 °F 14.3 °F 12.2 °F 74% 29.65 in 5.0 mi NE 3.5 mph - 0.00 in Snow Light Snow
11:51 AM 19.4 °F 12.8 °F 10.4 °F 68% 29.65 in 5.0 mi NE 4.6 mph - 0.00 in   Overcast
11:53 AM 19.0 °F 9.0 °F 10.0 °F 68% 29.66 in 5.0 mi NNE 8.1 mph - 0.00 in   Overcast
12:22 PM 19.4 °F 9.5 °F 10.4 °F 68% 29.66 in 2.5 mi NNE 8.1 mph - 0.00 in Snow Light Snow
12:30 PM 19.4 °F 10.4 °F 10.4 °F 68% 29.66 in 2.0 mi NNE 6.9 mph - 0.00 in Snow Light Snow
12:42 PM 17.6 °F 9.3 °F 10.4 °F 73% 29.67 in 1.5 mi North 5.8 mph - 0.00 in Snow Light Snow
12:53 PM 18.0 °F 12.7 °F 10.9 °F 74% 29.68 in 1.5 mi NE 3.5 mph - 0.01 in Snow Light Snow
1:17 PM 19.4 °F 14.3 °F 10.4 °F 68% 29.68 in 2.0 mi NE 3.5 mph - 0.00 in Snow Light Snow
1:45 PM 17.6 °F 10.7 °F 10.4 °F 73% 29.69 in 1.5 mi NNE 4.6 mph - 0.00 in Snow Light Snow
1:53 PM 18.0 °F 11.1 °F 10.9 °F 74% 29.71 in 1.5 mi NE 4.6 mph - 0.00 in Snow Light Snow
1:59 PM 17.6 °F 8.2 °F 10.4 °F 73% 29.70 in 1.8 mi NNE 6.9 mph - 0.00 in Snow Light Snow
2:25 PM 17.6 °F 6.4 °F 12.2 °F 79% 29.70 in 2.0 mi ENE 9.2 mph - 0.00 in Snow Light Snow
2:36 PM 17.6 °F 8.2 °F 10.4 °F 73% 29.71 in 4.0 mi ENE 6.9 mph - 0.00 in Snow Light Snow
2:47 PM 17.6 °F 9.3 °F 10.4 °F 73% 29.71 in 6.0 mi Variable 5.8 mph - 0.00 in   Overcast
2:53 PM 19.0 °F 12.3 °F 10.9 °F 71% 29.73 in 6.0 mi ENE 4.6 mph - 0.00 in   Overcast
3:53 PM 18.0 °F 12.7 °F 9.0 °F 68% 29.75 in 10.0 mi ENE 3.5 mph - 0.00 in Snow Light Snow
4:53 PM 18.0 °F 11.1 °F 10.0 °F 71% 29.78 in 10.0 mi ESE 4.6 mph - 0.00 in   Mostly Cloudy
5:53 PM 19.0 °F 13.9 °F 8.1 °F 62% 29.81 in 10.0 mi ENE 3.5 mph - N/A   Mostly Cloudy
6:53 PM 19.0 °F 13.9 °F 3.9 °F 52% 29.83 in 10.0 mi NNE 3.5 mph - N/A   Mostly Cloudy
7:53 PM 16.0 °F 10.4 °F 3.9 °F 59% 29.85 in 10.0 mi ENE 3.5 mph - N/A   Mostly Cloudy
8:53 PM 16.0 °F 6.3 °F 1.0 °F 52% 29.86 in 10.0 mi North 6.9 mph - N/A   Mostly Cloudy
9:53 PM 16.0 °F 3.6 °F 1.9 °F 54% 29.90 in 10.0 mi North 10.4 mph - N/A   Mostly Cloudy
10:53 PM 15.1 °F 5.2 °F 1.9 °F 56% 29.93 in 10.0 mi North 6.9 mph - N/A   Mostly Cloudy
11:53 PM 14.0 °F 5.1 °F 1.0 °F 56% 29.96 in 10.0 mi NNE 5.8 mph - N/A   Mostly Cloudy